Location: Allos
(44.2333°N, 6.6333°E)
Time: 10:10:11
(UTC+00:00)

Cosmos 1633 Rocket - Pass Details

Date: 01 December 2020
Orbit: 607 x 624 km, 82.5° (Epoch: 25 January)

Event Time Altitude Azimuth Distance (km) Brightness Sun altitude
Rises 16:24:39 0° 357° (N) 2,895 6.3 -5.4°
Reaches altitude 10° 16:26:59 10° 5° (N) 1,982 5.4 -5.8°
Maximum altitude 16:31:10 43° 77° (ENE) 869 3.4 -6.5°
Drops below altitude 10° 16:35:18 10° 149° (SSE) 1,958 5.6 -7.1°
Sets 16:37:35 0° 156° (SSE) 2,856 6.5 -7.5°
